Flag for Switzerland Weather past 2 weeks in Riehen, Basel-Stadt, Switzerland

Now
50 °F

Light rain. Overcast.


Feels Like: 47 °F
Forecast: 49 / 54 °F
Wind: 7 mph from West

Location: Bale-Mulhouse

Current Time: Mar 28, 2015 at 5:45:19 PM

Latest Report: Mar 28, 2015 at 5:00 PM


Visibility: 8 mi

Pressure: 30.13 "Hg

Humidity: 73%

Dew point: 42 °F

Location of RiehenLocation

Historic Weather in Riehen — Graph

°F

Riehen temperature yesterday

Maximum temperature yesterday: 54 °F (at 2:00 PM)
Minimum temperature yesterday: 38 °F (at 11:00 PM)
Average temperature yesterday: 47 °F

Past Weeks' High & Low Weather Summary

 TemperatureHumidityPressure
High64 °F (Mar 18, 4:00 PM)100% (Mar 15, 7:00 AM)30.32 "Hg (Mar 15, 7:00 AM)
Low28 °F (Mar 15, 3:00 AM)36% (Mar 17, 3:00 PM)29.66 "Hg (Mar 25, 10:00 AM)
Average45 °F72%30.08 "Hg
* Reported Mar 13 4:00 PM — Mar 28 4:00 PM, Riehen, Weather by CustomWeather, © 2015

Note: Actual official high and low records may vary slightly from our data, if they occured in-between our weather recording intervals... More about our weather records

Advertising

Riehen weather history for previous 24 hours

 ConditionsComfort  
Time TempWeatherWind HumidityBarometerVisibility
4:00 PM
Sat, Mar 28
52 °FLight rain. Overcast.8 mph64%30.12 "Hg10 mi
3:00 PM54 °FLight rain. Overcast.10 mph50%30.12 "Hg22 mi
2:00 PM56 °FOvercast.9 mph43%30.13 "Hg22 mi
1:00 PM56 °FOvercast.8 mph42%30.15 "Hg28 mi
12:00 PM55 °FOvercast.3 mph47%30.18 "Hg28 mi
11:00 AM53 °FOvercast.3 mph45%30.20 "Hg19 mi
10:00 AM49 °FScattered clouds.3 mph56%30.24 "Hg16 mi
9:00 AM44 °FPassing clouds.6 mph67%30.26 "Hg16 mi
8:00 AM39 °FPassing clouds.6 mph81%30.28 "Hg19 mi
7:00 AM34 °FPassing clouds.5 mph91%30.30 "Hg12 mi
6:00 AM33 °FFog.5 mph92%30.31 "Hg9 mi
5:00 AM32 °FOvercast.2 mph92%30.31 "Hg9 mi
4:00 AM31 °FChilly.2 mph95%30.32 "Hg9 mi
3:00 AM32 °FChilly.2 mph93%30.32 "Hg11 mi
2:00 AM34 °FChilly.2 mph89%30.32 "Hg13 mi
1:00 AM34 °FChilly.3 mph91%30.32 "Hg12 mi
12:00 AM35 °FPassing clouds.3 mph84%30.32 "Hg19 mi
11:00 PM
Fri, Mar 27
38 °FClear.1 mph77%30.30 "Hg19 mi
9:00 PM44 °FPassing clouds.8 mph61%30.28 "Hg19 mi
8:00 PM46 °FPassing clouds.7 mph57%30.25 "Hg19 mi
7:00 PM49 °FPassing clouds.9 mph51%30.23 "Hg19 mi
6:00 PM51 °FPassing clouds.5 mph51%30.20 "Hg19 mi
5:00 PM53 °FPartly sunny.10 mph43%30.18 "Hg12 mi
Weather by CustomWeather, © 2015

See weather overviewHow to use our weather pages